TimeCDT,TemperatureF,Dew PointF,Humidity,Sea Level PressureIn,VisibilityMPH,Wind Direction,Wind SpeedMPH,Gust SpeedMPH,PrecipitationIn,Events,Conditions,WindDirDegrees,DateUTC
12:54 AM,41.0,30.0,65,30.05,10.0,NNE,17.3,-,N/A,,Overcast,20,2013-05-04 05:54:00
1:54 AM,39.9,30.0,68,30.03,10.0,North,20.7,29.9,N/A,,Overcast,360,2013-05-04 06:54:00
2:26 AM,39.2,30.2,70,30.01,10.0,North,20.7,34.5,N/A,,Overcast,10,2013-05-04 07:26:00
2:54 AM,39.0,30.9,73,30.02,10.0,North,23.0,32.2,N/A,,Overcast,10,2013-05-04 07:54:00
3:54 AM,39.0,30.9,73,30.02,10.0,North,19.6,26.5,N/A,,Overcast,10,2013-05-04 08:54:00
4:54 AM,39.0,30.9,73,30.03,10.0,North,25.3,33.4,N/A,,Overcast,360,2013-05-04 09:54:00
5:49 AM,37.4,33.8,87,30.02,7.0,North,20.7,27.6,0.00,Rain,Light Rain,10,2013-05-04 10:49:00
5:54 AM,37.9,33.1,83,30.03,6.0,North,23.0,29.9,0.00,Rain,Light Rain,10,2013-05-04 10:54:00
6:16 AM,37.4,33.8,87,30.02,4.0,North,21.9,26.5,0.00,Snow,Light Snow,10,2013-05-04 11:16:00
6:54 AM,37.0,35.1,93,30.04,5.0,North,19.6,-,0.00,Rain,Light Rain,360,2013-05-04 11:54:00
7:16 AM,37.4,33.8,87,30.01,2.5,North,21.9,28.8,0.00,Snow,Light Snow,360,2013-05-04 12:16:00
7:54 AM,37.0,35.1,93,30.04,2.5,North,21.9,28.8,0.00,Rain,Light Rain,360,2013-05-04 12:54:00
8:01 AM,37.4,35.6,93,30.01,4.0,North,23.0,29.9,0.00,,Overcast,360,2013-05-04 13:01:00
8:54 AM,37.9,35.1,89,30.04,6.0,North,20.7,28.8,0.00,,Overcast,360,2013-05-04 13:54:00
9:54 AM,37.9,35.1,89,30.06,10.0,North,19.6,27.6,N/A,,Overcast,360,2013-05-04 14:54:00
10:41 AM,37.4,35.6,93,30.05,2.5,North,19.6,27.6,0.00,Rain,Light Rain,10,2013-05-04 15:41:00
10:54 AM,37.9,36.0,93,30.08,2.5,North,19.6,29.9,0.00,Snow,Light Snow,10,2013-05-04 15:54:00
11:22 AM,39.2,35.6,87,30.06,2.5,North,19.6,25.3,0.01,,Overcast,360,2013-05-04 16:22:00
11:48 AM,39.2,35.6,87,30.07,9.0,North,23.0,28.8,0.01,,Overcast,10,2013-05-04 16:48:00
11:54 AM,39.9,37.0,89,30.10,10.0,North,18.4,-,0.01,,Overcast,10,2013-05-04 16:54:00
12:06 PM,39.2,37.4,93,30.08,7.0,North,16.1,-,N/A,,Overcast,10,2013-05-04 17:06:00
12:54 PM,39.9,37.0,89,30.10,6.0,NNE,20.7,27.6,N/A,,Overcast,20,2013-05-04 17:54:00
1:13 PM,39.2,37.4,93,30.06,2.5,North,21.9,-,N/A,,Overcast,360,2013-05-04 18:13:00
1:21 PM,39.2,37.4,93,30.07,3.0,North,17.3,-,N/A,,Overcast,360,2013-05-04 18:21:00
1:54 PM,39.9,37.0,89,30.10,7.0,North,17.3,27.6,N/A,,Overcast,10,2013-05-04 18:54:00
2:47 PM,41.0,37.4,87,30.08,4.0,North,19.6,-,0.00,Rain,Light Rain,10,2013-05-04 19:47:00
2:54 PM,41.0,39.0,93,30.10,4.0,North,18.4,-,0.00,Rain,Light Rain,10,2013-05-04 19:54:00
3:54 PM,42.1,37.9,85,30.11,10.0,North,21.9,26.5,0.00,,Overcast,360,2013-05-04 20:54:00
4:54 PM,43.0,37.9,82,30.12,10.0,NNE,19.6,26.5,N/A,,Overcast,20,2013-05-04 21:54:00
5:54 PM,43.0,39.0,86,30.12,10.0,North,23.0,27.6,N/A,,Overcast,360,2013-05-04 22:54:00
6:54 PM,43.0,39.0,86,30.14,10.0,North,16.1,-,N/A,,Overcast,360,2013-05-04 23:54:00
7:54 PM,42.1,39.0,89,30.16,10.0,North,11.5,20.7,N/A,,Overcast,360,2013-05-05 00:54:00
8:11 PM,42.8,39.2,87,30.13,5.0,North,13.8,-,N/A,,Overcast,360,2013-05-05 01:11:00
8:54 PM,42.1,37.9,85,30.16,10.0,North,18.4,25.3,N/A,,Overcast,10,2013-05-05 01:54:00
9:54 PM,42.1,37.9,85,30.18,10.0,North,13.8,-,N/A,,Overcast,10,2013-05-05 02:54:00
10:54 PM,42.1,37.9,85,30.18,10.0,North,13.8,-,N/A,,Overcast,360,2013-05-05 03:54:00
11:54 PM,42.1,37.9,85,30.18,10.0,North,13.8,-,N/A,,Overcast,360,2013-05-05 04:54:00